Location: Newark
(44.5208°N, 2.4294°E)
Time: 15:38:04
(UTC+00:00)

Envisat - Pass Details

Date: 26 September 2019
Orbit: 764 x 766 km, 98.1° (Epoch: 16 October)

Event Time Altitude Azimuth Distance (km) Brightness Sun altitude
Rises 18:59:57 0° 201° (SSW) 3,219 6.3 -14.8°
Reaches altitude 10° 19:02:43 10° 216° (SW) 2,298 5.8 -15.3°
Maximum altitude 19:06:40 23° 268° (W) 1,599 5.5 -16.0°
Drops below altitude 10° 19:10:39 10° 319° (NW) 2,311 6.3 -16.7°
Sets 19:13:27 0° 334° (NNW) 3,242 6.9 -17.1°
